Time,TemperatureF,DewpointF,PressureIn,WindDirection,WindDirectionDegrees,WindSpeedMPH,WindSpeedGustMPH,Humidity,HourlyPrecipIn,Conditions,Clouds,dailyrainin,SoftwareType,DateUTC
2013-04-29 00:01:00,70.0,50.0,29.89,West,280,7.0,-999.0,49,-99.99,,,-99.99,,2013-04-29 07:01:00,
2013-04-29 00:11:00,68.0,50.0,29.89,West,280,6.0,-999.0,52,-99.99,,,-99.99,,2013-04-29 07:11:00,
2013-04-29 00:21:00,68.0,50.0,29.89,West,280,6.0,-999.0,52,-99.99,,,-99.99,,2013-04-29 07:21:00,
2013-04-29 00:31:00,68.0,50.0,29.89,West,280,9.0,-999.0,52,-99.99,,,-99.99,,2013-04-29 07:31:00,
2013-04-29 00:41:00,68.0,50.0,29.89,West,280,9.0,-999.0,52,-99.99,,,-99.99,,2013-04-29 07:41:00,
2013-04-29 00:52:00,66.0,50.0,29.89,WNW,290,8.0,-999.0,55,-99.99,,,-99.99,,2013-04-29 07:52:00,
2013-04-29 01:02:00,66.0,50.0,29.89,WNW,290,8.0,-999.0,55,-99.99,,,-99.99,,2013-04-29 08:02:00,
2013-04-29 01:11:00,66.0,50.0,29.89,WNW,290,7.0,-999.0,55,-99.99,,,-99.99,,2013-04-29 08:11:00,
2013-04-29 01:21:00,66.0,50.0,29.89,WNW,290,7.0,-999.0,55,-99.99,,,-99.99,,2013-04-29 08:21:00,
2013-04-29 01:31:00,66.0,50.0,29.89,WNW,290,9.0,-999.0,55,-99.99,,,-99.99,,2013-04-29 08:31:00,
2013-04-29 01:41:00,66.0,50.0,29.89,WNW,290,9.0,-999.0,55,-99.99,,,-99.99,,2013-04-29 08:41:00,
2013-04-29 01:51:00,66.0,50.0,29.89,WNW,290,8.0,-999.0,55,-99.99,,,-99.99,,2013-04-29 08:51:00,
2013-04-29 02:01:00,66.0,50.0,29.89,WNW,290,8.0,-999.0,55,-99.99,,,-99.99,,2013-04-29 09:01:00,
2013-04-29 02:11:00,66.0,50.0,29.89,West,280,6.0,-999.0,55,-99.99,,,-99.99,,2013-04-29 09:11:00,
2013-04-29 02:21:00,66.0,50.0,29.89,West,280,6.0,-999.0,55,-99.99,,,-99.99,,2013-04-29 09:21:00,
2013-04-29 02:32:00,66.0,50.0,29.88,WNW,290,10.0,-999.0,55,-99.99,,,-99.99,,2013-04-29 09:32:00,
2013-04-29 02:42:00,66.0,50.0,29.88,WNW,290,10.0,-999.0,55,-99.99,,,-99.99,,2013-04-29 09:42:00,
2013-04-29 02:52:00,66.0,52.0,29.87,WNW,290,9.0,-999.0,59,-99.99,,,-99.99,,2013-04-29 09:52:00,
2013-04-29 03:02:00,66.0,52.0,29.87,WNW,290,9.0,-999.0,59,-99.99,,,-99.99,,2013-04-29 10:02:00,
2013-04-29 03:12:00,64.0,50.0,29.87,WNW,300,5.0,-999.0,59,-99.99,,,-99.99,,2013-04-29 10:12:00,
2013-04-29 03:22:00,64.0,50.0,29.87,WNW,300,5.0,-999.0,59,-99.99,,,-99.99,,2013-04-29 10:22:00,
2013-04-29 03:32:00,64.0,50.0,29.86,North,0,0.0,-999.0,59,-99.99,,,-99.99,,2013-04-29 10:32:00,
2013-04-29 03:42:00,64.0,50.0,29.86,North,0,0.0,-999.0,59,-99.99,,,-99.99,,2013-04-29 10:42:00,
2013-04-29 03:52:00,63.0,52.0,29.86,North,0,0.0,-999.0,67,-99.99,,,-99.99,,2013-04-29 10:52:00,
2013-04-29 04:02:00,63.0,52.0,29.86,North,0,0.0,-999.0,67,-99.99,,,-99.99,,2013-04-29 11:02:00,
2013-04-29 04:12:00,63.0,52.0,29.86,WNW,300,7.0,-999.0,67,-99.99,,,-99.99,,2013-04-29 11:12:00,
2013-04-29 04:21:00,63.0,52.0,29.86,WNW,300,7.0,-999.0,67,-99.99,,,-99.99,,2013-04-29 11:21:00,
2013-04-29 04:31:00,63.0,52.0,29.86,WNW,290,8.0,-999.0,67,-99.99,,,-99.99,,2013-04-29 11:31:00,
2013-04-29 04:41:00,63.0,52.0,29.86,WNW,290,8.0,-999.0,67,-99.99,,,-99.99,,2013-04-29 11:41:00,
2013-04-29 04:52:00,63.0,52.0,29.87,WNW,290,9.0,-999.0,67,-99.99,,,-99.99,,2013-04-29 11:52:00,
2013-04-29 05:01:00,63.0,52.0,29.87,WNW,290,9.0,-999.0,67,-99.99,,,-99.99,,2013-04-29 12:01:00,
2013-04-29 05:11:00,63.0,50.0,29.87,WNW,290,8.0,-999.0,63,-99.99,,,-99.99,,2013-04-29 12:11:00,
2013-04-29 05:21:00,63.0,50.0,29.87,WNW,290,8.0,-999.0,63,-99.99,,,-99.99,,2013-04-29 12:21:00,
2013-04-29 05:31:00,63.0,50.0,29.87,WNW,290,8.0,-999.0,63,-99.99,,,-99.99,,2013-04-29 12:31:00,
2013-04-29 05:41:00,63.0,50.0,29.87,WNW,290,8.0,-999.0,63,-99.99,,,-99.99,,2013-04-29 12:41:00,
2013-04-29 05:51:00,63.0,50.0,29.87,WNW,290,9.0,-999.0,63,-99.99,,,-99.99,,2013-04-29 12:51:00,
2013-04-29 06:01:00,63.0,50.0,29.87,WNW,290,9.0,-999.0,63,-99.99,,,-99.99,,2013-04-29 13:01:00,
2013-04-29 06:11:00,63.0,50.0,29.87,WNW,300,8.0,-999.0,63,-99.99,,,-99.99,,2013-04-29 13:11:00,
2013-04-29 06:21:00,63.0,50.0,29.87,WNW,300,8.0,-999.0,63,-99.99,,,-99.99,,2013-04-29 13:21:00,
2013-04-29 06:31:00,64.0,52.0,29.87,West,280,7.0,-999.0,63,-99.99,,,-99.99,,2013-04-29 13:31:00,
2013-04-29 06:42:00,64.0,52.0,29.87,West,280,7.0,-999.0,63,-99.99,,,-99.99,,2013-04-29 13:42:00,
2013-04-29 06:51:00,64.0,52.0,29.88,WNW,290,7.0,-999.0,63,-99.99,,,-99.99,,2013-04-29 13:51:00,
2013-04-29 07:01:00,64.0,52.0,29.88,WNW,290,7.0,-999.0,63,-99.99,,,-99.99,,2013-04-29 14:01:00,
2013-04-29 07:11:00,64.0,52.0,29.89,WNW,290,7.0,-999.0,63,-99.99,,,-99.99,,2013-04-29 14:11:00,
2013-04-29 07:21:00,64.0,52.0,29.89,WNW,290,7.0,-999.0,63,-99.99,,,-99.99,,2013-04-29 14:21:00,
2013-04-29 07:32:00,64.0,52.0,29.89,WNW,290,8.0,-999.0,63,-99.99,,,-99.99,,2013-04-29 14:32:00,
2013-04-29 07:42:00,64.0,52.0,29.89,WNW,290,8.0,-999.0,63,-99.99,,,-99.99,,2013-04-29 14:42:00,
2013-04-29 07:51:00,66.0,52.0,29.89,WNW,290,8.0,-999.0,59,-99.99,,,-99.99,,2013-04-29 14:51:00,
2013-04-29 08:01:00,66.0,52.0,29.89,WNW,290,8.0,-999.0,59,-99.99,,,-99.99,,2013-04-29 15:01:00,
2013-04-29 08:33:00,70.0,50.0,29.90,WNW,290,10.0,15.0,49,-99.99,,,-99.99,,2013-04-29 15:33:00,
2013-04-29 08:53:00,70.0,48.0,29.90,WNW,290,14.0,-999.0,46,-99.99,,,-99.99,,2013-04-29 15:53:00,
2013-04-29 09:02:00,70.0,48.0,29.90,WNW,290,14.0,-999.0,46,-99.99,,,-99.99,,2013-04-29 16:02:00,
2013-04-29 09:12:00,72.0,50.0,29.90,NW,320,9.0,-999.0,46,-99.99,,,-99.99,,2013-04-29 16:12:00,
2013-04-29 09:23:00,72.0,50.0,29.90,NW,320,9.0,-999.0,46,-99.99,,,-99.99,,2013-04-29 16:23:00,
2013-04-29 09:32:00,73.0,50.0,29.90,NNW,330,9.0,-999.0,43,-99.99,,,-99.99,,2013-04-29 16:32:00,
2013-04-29 09:42:00,73.0,50.0,29.90,NNW,330,9.0,-999.0,43,-99.99,,,-99.99,,2013-04-29 16:42:00,
2013-04-29 09:52:00,73.0,50.0,29.89,NW,310,14.0,20.0,43,-99.99,,,-99.99,,2013-04-29 16:52:00,
2013-04-29 10:02:00,73.0,50.0,29.89,NW,310,14.0,20.0,43,-99.99,,,-99.99,,2013-04-29 17:02:00,
2013-04-29 10:11:00,73.0,50.0,29.89,NW,310,14.0,20.0,43,-99.99,,,-99.99,,2013-04-29 17:11:00,
2013-04-29 10:22:00,73.0,50.0,29.89,NW,310,14.0,20.0,43,-99.99,,,-99.99,,2013-04-29 17:22:00,
2013-04-29 10:31:00,75.0,52.0,29.89,North,-99,7.0,-999.0,43,-99.99,,,-99.99,,2013-04-29 17:31:00,
2013-04-29 10:42:00,75.0,52.0,29.89,North,-99,7.0,-999.0,43,-99.99,,,-99.99,,2013-04-29 17:42:00,
2013-04-29 10:52:00,77.0,52.0,29.89,NNW,330,9.0,-999.0,41,-99.99,,,-99.99,,2013-04-29 17:52:00,
2013-04-29 11:01:00,77.0,52.0,29.89,NNW,330,9.0,-999.0,41,-99.99,,,-99.99,,2013-04-29 18:01:00,
2013-04-29 11:12:00,77.0,52.0,29.89,NNW,330,9.0,-999.0,41,-99.99,,,-99.99,,2013-04-29 18:12:00,
2013-04-29 11:22:00,77.0,52.0,29.89,NNW,330,9.0,-999.0,41,-99.99,,,-99.99,,2013-04-29 18:22:00,
2013-04-29 11:31:00,81.0,54.0,29.89,WSW,250,6.0,-999.0,39,-99.99,,,-99.99,,2013-04-29 18:31:00,
2013-04-29 11:42:00,81.0,54.0,29.89,WSW,250,6.0,-999.0,39,-99.99,,,-99.99,,2013-04-29 18:42:00,
2013-04-29 11:52:00,81.0,54.0,29.89,West,260,6.0,-999.0,39,-99.99,,,-99.99,,2013-04-29 18:52:00,
2013-04-29 12:01:00,81.0,54.0,29.89,West,260,6.0,-999.0,39,-99.99,,,-99.99,,2013-04-29 19:01:00,
2013-04-29 12:11:00,81.0,52.0,29.88,West,280,6.0,-999.0,36,-99.99,,,-99.99,,2013-04-29 19:11:00,
2013-04-29 12:21:00,81.0,52.0,29.88,West,280,6.0,-999.0,36,-99.99,,,-99.99,,2013-04-29 19:21:00,
2013-04-29 12:31:00,82.0,54.0,29.87,WNW,290,8.0,-999.0,37,-99.99,,,-99.99,,2013-04-29 19:31:00,
2013-04-29 12:41:00,82.0,54.0,29.87,WNW,290,8.0,-999.0,37,-99.99,,,-99.99,,2013-04-29 19:41:00,
2013-04-29 12:51:00,82.0,52.0,29.86,WNW,300,7.0,-999.0,34,-99.99,,,-99.99,,2013-04-29 19:51:00,
2013-04-29 13:01:00,82.0,52.0,29.86,WNW,300,7.0,-999.0,34,-99.99,,,-99.99,,2013-04-29 20:01:00,
2013-04-29 13:11:00,84.0,54.0,29.86,West,280,7.0,-999.0,34,-99.99,,,-99.99,,2013-04-29 20:11:00,
2013-04-29 13:21:00,84.0,54.0,29.86,West,280,7.0,-999.0,34,-99.99,,,-99.99,,2013-04-29 20:21:00,
2013-04-29 13:32:00,84.0,54.0,29.85,WSW,250,9.0,-999.0,34,-99.99,,,-99.99,,2013-04-29 20:32:00,
2013-04-29 13:42:00,84.0,54.0,29.85,WSW,250,9.0,-999.0,34,-99.99,,,-99.99,,2013-04-29 20:42:00,
2013-04-29 13:51:00,84.0,54.0,29.84,West,260,7.0,-999.0,34,-99.99,,,-99.99,,2013-04-29 20:51:00,
2013-04-29 14:01:00,84.0,54.0,29.84,West,260,7.0,-999.0,34,-99.99,,,-99.99,,2013-04-29 21:01:00,
2013-04-29 14:11:00,86.0,54.0,29.84,North,-99,7.0,-999.0,33,-99.99,,,-99.99,,2013-04-29 21:11:00,
2013-04-29 14:21:00,86.0,54.0,29.84,North,-99,7.0,-999.0,33,-99.99,,,-99.99,,2013-04-29 21:21:00,
2013-04-29 14:32:00,88.0,54.0,29.83,West,280,10.0,-999.0,31,-99.99,,,-99.99,,2013-04-29 21:32:00,
2013-04-29 14:42:00,88.0,54.0,29.83,West,280,10.0,-999.0,31,-99.99,,,-99.99,,2013-04-29 21:42:00,
2013-04-29 14:53:00,88.0,54.0,29.83,NW,310,12.0,-999.0,31,-99.99,,,-99.99,,2013-04-29 21:53:00,
2013-04-29 15:02:00,88.0,54.0,29.83,NW,310,12.0,-999.0,31,-99.99,,,-99.99,,2013-04-29 22:02:00,
2013-04-29 15:12:00,88.0,54.0,29.82,WNW,300,13.0,-999.0,31,-99.99,,,-99.99,,2013-04-29 22:12:00,
2013-04-29 15:23:00,88.0,54.0,29.82,WNW,300,13.0,-999.0,31,-99.99,,,-99.99,,2013-04-29 22:23:00,
2013-04-29 15:32:00,88.0,54.0,29.81,West,270,14.0,20.0,31,-99.99,,,-99.99,,2013-04-29 22:32:00,
2013-04-29 15:42:00,88.0,54.0,29.81,West,270,14.0,20.0,31,-99.99,,,-99.99,,2013-04-29 22:42:00,
2013-04-29 15:52:00,86.0,54.0,29.80,WNW,290,12.0,20.0,33,-99.99,,,-99.99,,2013-04-29 22:52:00,
2013-04-29 16:02:00,86.0,54.0,29.80,WNW,290,12.0,20.0,33,-99.99,,,-99.99,,2013-04-29 23:02:00,
2013-04-29 16:11:00,86.0,54.0,29.80,West,270,16.0,-999.0,33,-99.99,,,-99.99,,2013-04-29 23:11:00,
2013-04-29 16:22:00,86.0,54.0,29.80,West,270,16.0,-999.0,33,-99.99,,,-99.99,,2013-04-29 23:22:00,
2013-04-29 16:31:00,84.0,54.0,29.80,West,270,12.0,21.0,34,-99.99,,,-99.99,,2013-04-29 23:31:00,
2013-04-29 16:42:00,84.0,54.0,29.80,West,270,12.0,21.0,34,-99.99,,,-99.99,,2013-04-29 23:42:00,
2013-04-29 16:52:00,84.0,54.0,29.80,WNW,290,14.0,24.0,34,-99.99,,,-99.99,,2013-04-29 23:52:00,
2013-04-29 17:01:00,84.0,54.0,29.80,WNW,290,14.0,24.0,34,-99.99,,,-99.99,,2013-04-30 00:01:00,
2013-04-29 17:11:00,82.0,54.0,29.79,West,260,15.0,20.0,37,-99.99,,,-99.99,,2013-04-30 00:11:00,
2013-04-29 17:21:00,82.0,54.0,29.79,West,260,15.0,20.0,37,-99.99,,,-99.99,,2013-04-30 00:21:00,
2013-04-29 17:31:00,82.0,54.0,29.79,West,280,18.0,25.0,37,-99.99,,,-99.99,,2013-04-30 00:31:00,
2013-04-29 17:41:00,82.0,54.0,29.79,West,280,18.0,25.0,37,-99.99,,,-99.99,,2013-04-30 00:41:00,
2013-04-29 17:51:00,81.0,52.0,29.79,West,260,21.0,-999.0,36,-99.99,,,-99.99,,2013-04-30 00:51:00,
2013-04-29 18:01:00,81.0,52.0,29.79,West,260,21.0,-999.0,36,-99.99,,,-99.99,,2013-04-30 01:01:00,
2013-04-29 18:11:00,81.0,54.0,29.79,West,280,16.0,22.0,39,-99.99,,,-99.99,,2013-04-30 01:11:00,
2013-04-29 18:21:00,81.0,54.0,29.79,West,280,16.0,22.0,39,-99.99,,,-99.99,,2013-04-30 01:21:00,
2013-04-29 18:31:00,79.0,54.0,29.79,West,270,14.0,21.0,41,-99.99,,,-99.99,,2013-04-30 01:31:00,
2013-04-29 18:41:00,79.0,54.0,29.79,West,270,14.0,21.0,41,-99.99,,,-99.99,,2013-04-30 01:41:00,
2013-04-29 18:51:00,77.0,52.0,29.79,West,270,14.0,25.0,41,-99.99,,,-99.99,,2013-04-30 01:51:00,
2013-04-29 19:01:00,77.0,52.0,29.79,West,270,14.0,25.0,41,-99.99,,,-99.99,,2013-04-30 02:01:00,
2013-04-29 19:11:00,75.0,52.0,29.79,West,270,16.0,22.0,43,-99.99,,,-99.99,,2013-04-30 02:11:00,
2013-04-29 19:31:00,73.0,52.0,29.79,West,270,12.0,18.0,46,-99.99,,,-99.99,,2013-04-30 02:31:00,
2013-04-29 19:41:00,73.0,52.0,29.79,West,270,12.0,18.0,46,-99.99,,,-99.99,,2013-04-30 02:41:00,
2013-04-29 19:51:00,72.0,52.0,29.79,West,270,13.0,20.0,49,-99.99,,,-99.99,,2013-04-30 02:51:00,
2013-04-29 20:01:00,72.0,52.0,29.79,West,270,13.0,20.0,49,-99.99,,,-99.99,,2013-04-30 03:01:00,
2013-04-29 20:11:00,72.0,52.0,29.79,West,270,13.0,20.0,49,-99.99,,,-99.99,,2013-04-30 03:11:00,
2013-04-29 20:21:00,72.0,52.0,29.79,West,270,13.0,20.0,49,-99.99,,,-99.99,,2013-04-30 03:21:00,
2013-04-29 20:33:00,70.0,52.0,29.79,West,270,13.0,20.0,52,-99.99,,,-99.99,,2013-04-30 03:33:00,
2013-04-29 20:43:00,70.0,52.0,29.79,West,270,13.0,20.0,52,-99.99,,,-99.99,,2013-04-30 03:43:00,
2013-04-29 20:52:00,68.0,52.0,29.79,West,280,14.0,20.0,56,-99.99,,,-99.99,,2013-04-30 03:52:00,
2013-04-29 21:02:00,68.0,52.0,29.79,West,280,14.0,20.0,56,-99.99,,,-99.99,,2013-04-30 04:02:00,
2013-04-29 21:11:00,68.0,52.0,29.79,West,280,14.0,20.0,56,-99.99,,,-99.99,,2013-04-30 04:11:00,
2013-04-29 21:22:00,68.0,52.0,29.79,West,280,14.0,20.0,56,-99.99,,,-99.99,,2013-04-30 04:22:00,
2013-04-29 21:32:00,66.0,52.0,29.79,West,280,15.0,22.0,59,-99.99,,,-99.99,,2013-04-30 04:32:00,
2013-04-29 21:42:00,66.0,52.0,29.79,West,280,15.0,22.0,59,-99.99,,,-99.99,,2013-04-30 04:42:00,
2013-04-29 21:52:00,64.0,50.0,29.79,WNW,290,17.0,22.0,59,-99.99,,,-99.99,,2013-04-30 04:52:00,
2013-04-29 22:02:00,64.0,50.0,29.79,WNW,290,17.0,22.0,59,-99.99,,,-99.99,,2013-04-30 05:02:00,
2013-04-29 22:11:00,64.0,50.0,29.80,West,280,12.0,-999.0,59,-99.99,,,-99.99,,2013-04-30 05:11:00,
2013-04-29 22:22:00,64.0,50.0,29.80,West,280,12.0,-999.0,59,-99.99,,,-99.99,,2013-04-30 05:22:00,
2013-04-29 22:31:00,63.0,50.0,29.80,West,280,13.0,18.0,63,-99.99,,,-99.99,,2013-04-30 05:31:00,
2013-04-29 22:42:00,63.0,50.0,29.80,West,280,13.0,18.0,63,-99.99,,,-99.99,,2013-04-30 05:42:00,
2013-04-29 22:51:00,63.0,50.0,29.81,West,270,10.0,17.0,63,-99.99,,,-99.99,,2013-04-30 05:51:00,
2013-04-29 23:01:00,63.0,50.0,29.81,West,270,10.0,17.0,63,-99.99,,,-99.99,,2013-04-30 06:01:00,
2013-04-29 23:11:00,63.0,50.0,29.81,West,280,10.0,17.0,63,-99.99,,,-99.99,,2013-04-30 06:11:00,
2013-04-29 23:21:00,63.0,50.0,29.81,West,280,10.0,17.0,63,-99.99,,,-99.99,,2013-04-30 06:21:00,
2013-04-29 23:31:00,61.0,48.0,29.81,West,280,8.0,-999.0,63,-99.99,,,-99.99,,2013-04-30 06:31:00,
2013-04-29 23:41:00,61.0,48.0,29.81,West,280,8.0,-999.0,63,-99.99,,,-99.99,,2013-04-30 06:41:00,
2013-04-29 23:51:00,61.0,50.0,29.80,WNW,290,15.0,21.0,67,-99.99,,,-99.99,,2013-04-30 06:51:00,